Погода в Макарове

Россия / Сахалинская область     48°37′30″N   142°46′43″E
темп.,
°C
ветер,
м/с
пор.,
м/с
влажн.,
%
обл.,
%
осадки,
мм/ч
давл.,
гПа
погр.,
м
27 января, ср
ср2723:00−18юв119397 0.0 102492
02:00−18в1194100 0.0 102297
05:00−18св1190100 0.1 1020145
08:00−17ссв1296100 0.2 1017120
11:00−15св3494100 0.8 1014298
14:00−13св51093100 1.3 1009530
17:00−10всв71395100 4.1 1003714
20:00−10св81495100 6.4 1000754
28 января, чт
чт2823:00−13ссз61392100 10.8 999661
02:00−12зсз61385100 0.8 1002482
05:00−18зсз101975100 0.9 1005530
08:00−18зсз102076100 0.0 1008574
11:00−17зсз81878100 0.0 1011565
14:00−16зсз71576100 0.0 1012709
17:00−17зсз4127968 0.0 1014656
20:00−21зсз311890 0.0 1016374
29 января, пт
пт2923:00−23зсз33900 0.0 101740
02:00−23зсз22900 0.0 101733
05:00−24ссз23840 0.0 101624
08:00−25ссз11853 0.0 101621
11:00−21ссв249330 0.0 1015236
14:00−17св3686100 0.0 1013409
17:00−16св3983100 0.0 1011500
20:00−17ссв3987100 0.0 1011340
30 января, сб
сб3023:00−16с41288100 0.0 1009479
02:00−13с41391100 0.1 1008490
05:00−12ссв41387100 0.1 1007459
08:00−13с31286100 0.0 1008500
11:00−11ссз41179100 0.0 1009683
14:00−12зсз3583100 0.0 1009349
17:00−14зсз3486100 0.0 1010201
20:00−19зсз3492100 0.0 1011104
31 января, вс
вс3123:00−20зсз3392100 0.0 101176
02:00−21зсз3492100 0.0 1012118
05:00−21зсз3391100 0.0 1011122
08:00−21зсз2391100 0.0 1011105
11:00−19зсз258794 0.0 1011323
14:00−16зсз497788 0.0 1010705
17:00−18зсз4107957 0.0 1009651
20:00−22зсз3129014 0.0 1010496